Flight Information

DEPARTURE
OLYMPIA, WA
Elevation:
207
Runways:
17/35 - 5500x150 - ASPH-G
8/26 - 4157x150 - ASPH-G
ATIS:
135.725
Ground:
121.6
Tower:
OLYMPIA TOWER 124.4
DESTINATION
,
Elevation:
TPA:
1000 (est.)


6705.2 NM65° True-20° Var44° HDG

Flight Plan:
(click to file on line)

1. Type
2. Aircraft Identification
3. Aircraft Type / Special Equipment
4. True Airspeed
kts
5. Departure Airport
(ICAO code)
6. Arriving Airport
(ICAO code)
7. Cruising Altitude
ft
8. Alternate Airport
(ICAO code)
9. Route of Flight
10. Remarks


00:00:00 Departure ATIS: Destination ATIS:

Clearance Limit:
Route:
Altitude: Expect in minutes
Frequency:
Transponder: (7500 Hijack / 7600 Lost Comms / 7700 Emergency)


KOLM 221554Z 01003KT 10SM OVC050 04/01 A3002 RMK AO2 SLP167 T00440006
Time: 2021-01-22T15:54:00Z
1611332204
Winds: 10 @ 3 kts
Visibility: 10.0 sm
Clouds (AGL): OVC 5000
Temperature: 4.4 C
Dew Point: 0.6 C
Pressure: 30.02067 in Hgbr


Notes:

Data extracted from FAA Digital Chart Supplement. Effective: 0901Z Thursday, Dec 31, 2020 to 0901Z Thursday, Jan 28, 2021
Current ATIS data is provided courtisy of PilotEdge.